Location: Baix
(44.7118°N, 4.7648°E)
Time: 01:26:45
(UTC+00:00)

DELTA 2 DEB (DPAF) - Pass Details

Date: 07 August 2020
Orbit: 642 x 645 km, 98.3° (Epoch: 19 September)

Event Time Altitude Azimuth Distance (km) Brightness Sun altitude
Exits shadow 01:00:27 64° 51° (NE) 716 4.4 -26.7°
Drops below altitude 10° 01:04:36 10° 352° (N) 2,048 7.5 -26.4°
Sets 01:06:50 0° 350° (N) 2,962 8.4 -26.3°
